Content
SEND FEEDBACK

Daily
Averages
Monthly
Summary
United Kingdom

ROFFEY, ENGLAND


Home > Europe > United Kingdom > England
Elevation: 150 feet     Latitude: 51 18N     Longitude: 000 27W

WEATHER
 
SELECT A DAY
Number of Records: 344,319;   Date Range: 7/1/96 - 7/24/14
 
SHARE

PRINT THIS DATA

[ ← Previous Day ]
WEATHER ALMANAC - SEPTEMBER 15, 2013
[ Next Day → ]
[ °C ]   °F
Weather ElementAverageHighLow
Temperature54.1 °F60.8 °F (7:20 pm)44.6 °F (4:20 am)
Dewpoint49.2 °F59 °F (8:20 pm)41 °F (11:50 am)
Humidity83.9 %100 % (2:50 am)55 % (11:20 am)
Barometer29.81 in30.08 in (12:50 am)29.56 in (6:20 pm)
Wind Speed12 mph20.7 mph (3:50 pm)
Wind Gust28.8 mph (3:50 pm)
Weather ElementAverage
Visibility7.1 mi
Wind DirectionWSW (235.7 °)

Weather ElementTotal
Precipitation---
Heating Degree Days12.3 (Base 65)
Growing Degree Days2.7 (Base 50)
Averaged from 53 records on September 15, 2013
WEATHER CONDITIONS BREAKOUT
WIND DIRECTION BREAKOUT
WEATHER BY HOUR - SEPTEMBER 15, 2013
[ °C ]   °F
Local TimeTemperatureDewpointHumidityBarometerVisibilityWind DirectionWind SpeedGust SpeedPrecipitationEventsConditions
12:50 AM49.0 °F47.0 °F88 %30.08 in9.0 miWNW (290°)3.5 mph
12:50 AM46.4 °F44.6 °F93 %30.06 inWNW (300°)3.5 mphClear
1:20 AM48.2 °F46.4 °F93 %30.06 in6.2 miWNW (290°)3.5 mph
1:50 AM48.2 °F46.4 °F93 %30.06 in6.2 miWest (270°)4.6 mph
2:20 AM48.2 °F46.4 °F93 %30.06 in5.6 miCalm
2:50 AM46.4 °F46.4 °F100 %30.06 in5.0 miWest (280°)5.8 mph
3:20 AM46.4 °F44.6 °F93 %30.04 in5.0 miWest (280°)4.6 mph
3:50 AM46.4 °F44.6 °F93 %30.04 in4.3 miWest (260°)2.3 mph
4:20 AM44.6 °F44.6 °F100 %30.04 in4.3 miWest (270°)3.5 mphFogFog
4:50 AM44.6 °F44.6 °F100 %30.01 in3.7 miSW (220°)4.6 mphFogFog
5:20 AM44.6 °F44.6 °F100 %30.01 in3.1 miSSW (210°)4.6 mphPartly Cloudy
5:50 AM44.6 °F42.8 °F93 %30.01 in3.1 miSSW (210°)4.6 mphPartly Cloudy
6:20 AM44.6 °F42.8 °F93 %30.01 in3.7 miSSW (210°)5.8 mphFogPartly Cloudy
6:50 AM44.6 °F42.8 °F93 %29.98 in5.6 miSSW (210°)5.8 mph
7:20 AM44.6 °F44.6 °F100 %29.98 in6.2 miSSW (210°)6.9 mphFog
7:50 AM46.4 °F44.6 °F93 %29.98 inSW (220°)5.8 mphClear
8:20 AM50.0 °F44.6 °F82 %29.95 inWSW (240°)9.2 mphClear
8:50 AM51.8 °F46.4 °F82 %29.95 inSW (230°)11.5 mphClear
9:20 AM53.6 °F48.2 °F82 %29.92 inSW (220°)11.5 mphClear
9:50 AM55.4 °F48.2 °F77 %29.92 in6.2 miSW (220°)13.8 mphPartly Cloudy
9:50 AM56.0 °F49.0 °F69 %29.92 in22.0 miSW (220°)12.7 mph
10:20 AM57.2 °F48.2 °F72 %29.92 in6.2 miSW (230°)15.0 mphPartly Cloudy
10:50 AM59.0 °F46.4 °F63 %29.89 in6.2 miWSW (240°)18.4 mphPartly Cloudy
11:20 AM59.0 °F42.8 °F55 %29.86 in6.2 miSW (230°)18.4 mphPartly Cloudy
11:50 AM57.2 °F41.0 °F55 %29.86 in6.2 miWSW (240°)17.3 mphRainLight Rain
12:20 PM57.2 °F44.6 °F63 %29.83 in6.2 miSW (220°)15.0 mphPartly Cloudy
12:50 PM57.2 °F46.4 °F67 %29.83 in6.2 miSW (220°)16.1 mphPartly Cloudy
12:50 PM57.0 °F46.0 °F58 %29.82 in22.0 miSSW (210°)18.4 mphRainRain
1:20 PM57.2 °F48.2 °F72 %29.80 in6.2 miSW (220°)15.0 mphPartly Cloudy
1:50 PM59.0 °F48.2 °F67 %29.77 in6.2 miSW (220°)16.1 mphPartly Cloudy
2:20 PM57.2 °F50.0 °F77 %29.77 in6.2 miSW (230°)19.6 mphRainLight Rain
2:50 PM57.2 °F51.8 °F82 %29.74 in5.6 miSW (220°)16.1 mphRainLight Rain
3:20 PM57.2 °F53.6 °F88 %29.71 in5.6 miSW (220°)15.0 mphRainLight Rain
3:50 PM57.2 °F53.6 °F88 %29.68 in6.2 miSW (220°)17.3 mph28.8 mphMostly Cloudy
3:50 PM58.0 °F54.0 °F81 %29.68 in25.0 miSSW (210°)20.7 mphRainRain
4:20 PM57.2 °F53.6 °F88 %29.65 in6.2 miSW (220°)18.4 mphMostly Cloudy
4:50 PM59.0 °F53.6 °F82 %29.65 in6.2 miSW (230°)18.4 mphMostly Cloudy
5:20 PM59.0 °F55.4 °F88 %29.62 in6.2 miSW (230°)18.4 mphRainLight Rain
5:50 PM59.0 °F55.4 °F88 %29.59 in5.6 miSW (220°)17.3 mphRainLight Rain
6:20 PM59.0 °F57.2 °F94 %29.56 in3.1 miSW (220°)16.1 mphRainLight Rain
6:50 PM59.0 °F57.2 °F94 %29.56 in6.2 miSW (220°)17.3 mph28.8 mphRainLight Rain
6:50 PM59.0 °F57.0 °F92 %29.57 in3.0 miSW (220°)19.6 mphRainRain Showers
7:20 PM60.8 °F57.2 °F88 %29.56 in6.2 miSW (220°)17.3 mph28.8 mphMostly Cloudy
7:50 PM60.8 °F57.2 °F88 %29.56 in6.2 miSW (230°)17.3 mphRainLight Rain
8:20 PM60.8 °F59.0 °F94 %29.56 in6.2 miWSW (240°)17.3 mphRainLight Rain
8:50 PM59.0 °F53.6 °F82 %29.56 in6.2 miWest (280°)10.4 mphScattered Clouds
9:20 PM59.0 °F53.6 °F82 %29.59 in6.2 miWest (280°)11.5 mphScattered Clouds
9:50 PM59.0 °F53.6 °F82 %29.59 in6.2 miWest (280°)11.5 mphScattered Clouds
9:50 PM58.0 °F52.0 °F76 %29.60 in25.0 miWest (270°)10.4 mphScattered Clouds
10:20 PM57.2 °F53.6 °F88 %29.59 in6.2 miWNW (290°)9.2 mphScattered Clouds
10:50 PM57.2 °F53.6 °F88 %29.59 in6.2 miWest (270°)15.0 mphMostly Cloudy
11:20 PM57.2 °F50.0 °F77 %29.62 in6.2 miWNW (290°)13.8 mphMostly Cloudy
11:50 PM55.4 °F48.2 °F77 %29.62 in6.2 miWNW (290°)11.5 mphScattered Clouds
Hourly data recorded from EGLL, located miles away from Roffey, England







STORIES FROM OUR PARTNERS